sat.trackr.live / text

‹ back to catalog

HADES-SA (SPINNYONE)

NORAD 68446 · 2026-067AG

PAYLOAD ACTIVE UNKNOWN

§ Identity

Operator
Country
SPN
Launch date
2026-03-30
Launch site
AFWTR
Launch vehicle
Mass (kg)
RCS (m²)

External: N2YO · Heavens-Above · Gunter

§ Orbital elements

Epoch: 2026-05-24T19:56:03.869376Z

Period
94.85 min
Inclination
97.4390°
Eccentricity
0.0008556
Mean motion
15.18147324 rev/d
Perigee alt
505.5 km
Apogee alt
517.3 km
Semi-major
6,889.6 km
B*
8.1764e-4
RAAN
103.4941°
Arg perigee
140.1456°
Mean anomaly
220.0407°
Rev number
838

§ Raw data

HADES-SA (SPINNYONE)1 68446U 26067AG  26144.83060034  .00016667  00000+0  81764-3 0  99942 68446  97.4390 103.4941 0008556 140.1456 220.0407 15.18147324  8389

JSON: /api/v1/satellites/68446 · /tle

For live sub-satellite position, see the globe view (requires WebGL).

§ Visibility from observer

Set your observer location to see the next 7 days of passes ≥ 10°. The values pass through the URL so the page stays shareable.

No JS? Fill the form by hand. The geolocation button needs JavaScript.

§ Radio — SatNOGS DB

ModeDescriptionDownlinkUplink
FSK Mode V/U - 200 bps UP, 800 bps DOWN - TLM, SSDV, Codec 2, BBS 436.875 MHz 145.875 MHz
SSDV SSDV 436.875 MHz
FSK Mode U - FSK200 (inactive) 436.875 MHz

3 transmitters · refreshed weekly from db.satnogs.org